Regional Weather Roundup
Issued by NWS

Home | Current Version | Previous Version | Text Only | Print | Product List | Glossary Off
Versions: 1 2 3 4 5 6 7 8 9 10 11 12 13 14 15 16 17 18 19 20 21 22 23 24 25 26 27 28 29 30 31 32 33 34 35 36 37 38 39 40 41 42 43 44 45 46 47 48 49 50

814
ASUS44 KJAN 310110
RWRMS

MISSISSIPPI HOURLY WEATHER ROUNDUP
NATIONAL WEATHER SERVICE JACKSON MS
700 PM CST FRI JAN 30 2015

NOTE: "FAIR: INDICATES FEW OR NO CLOUDS BELOW 12,000 FEET WITH NO
SIGNIFICANT WEATHER AND/OR OBSTRUCTIONS TO VISIBILITY.

MSZ001>002-007>008-010>013-018>021-025>028-034>036-310200-
NORTHWEST MISSISSIPPI

CITY           SKY/WX    TMP DP  RH WIND       PRES   REMARKS
CLARKSDALE     FAIR      37  32  81 N7        30.44S WCI  32
CLEVELAND      FAIR      40  34  79 N5        30.42S
GREENWOOD      MOCLDY    44  29  55 N6        30.41R
GREENVILLE     PTCLDY    40  31  70 N6        30.42R
GRENADA        FAIR      36  30  80 N5        30.42R WCI  32
OLIVE BRANCH   PTCLDY    37  27  65 NE6       30.43R WCI  33
OXFORD         FAIR      37  25  60 N5        30.44R WCI  34
TUNICA         PTCLDY    37  30  75 N8        30.45S WCI  31
$$

MSZ003>006-009-014>017-022>024-029>033-037>039-310200-
NORTHEAST MISSISSIPPI

CITY           SKY/WX    TMP DP  RH WIND       PRES   REMARKS
COLUMBUS AFB   PTCLDY    42  24  49 N7        30.41R
CORINTH        FAIR      39  25  56 CALM      30.42S
GOLDN TRIANGLE CLEAR     41  27  56 N8        30.40R
STARKVILLE     FAIR      45  30  57 N8        30.41R
TUPELO         PTCLDY    41  24  51 NE3       30.42R
$$

MSZ040-058-310200-
CENTRAL MISSISSIPPI

CITY           SKY/WX    TMP DP  RH WIND       PRES   REMARKS
JACKSON INTL   MOCLDY    46  31  55 N3        30.38R
JACKSON HAWKNS MOCLDY    48  32  53 N5        30.38R
MERIDIAN KEY   MOCLDY    45  29  53 N7        30.38R
MERIDIAN NAS   PTCLDY    42  30  62 N5        30.38R
RAYMOND        FAIR      46  41  81 MISG      30.39R
VICKSBURG      MOCLDY    44  34  67 N8        30.40S
$$

MSZ059>079-310200-
SOUTH MISSISSIPPI

CITY           SKY/WX    TMP DP  RH WIND       PRES   REMARKS
BROOKHAVEN     FAIR      43  36  75 CALM      30.37R
HATTIESBURG    MOCLDY    46  33  60 CALM      30.36R
MCCOMB         MOCLDY    48  32  53 N3        30.35S
NATCHEZ        MOCLDY    48  30  49 N5        30.37S
PINE BELT      MOCLDY    43  30  61 N5        30.36R
$$

MSZ080>082-310200-
COASTAL MISSISSIPPI

CITY           SKY/WX    TMP DP  RH WIND       PRES   REMARKS
BAY ST LOUIS   CLEAR     45  37  76 CALM      30.34R
BILOXI         MOCLDY    52  36  54 N5        30.33R
PASCAGOULA     MOCLDY    51  31  46 N8        30.33R
GULFPORT       MOCLDY    52  34  50 N7        30.33R
$$



USA.gov is the U.S. government's official web portal to all federal, state and local government web resources and services.